Flag for Azerbaijan Weather past 2 weeks in Ganja, Azerbaijan

Now
77 °F

Passing clouds.


Feels Like: 78 °F
Forecast: 78 / 98 °F
Wind: 6 mph from West

Location: Gyanca Airport

Current Time: Jul 25, 2014 at 8:41:59 AM

Latest Report: Jul 25, 2014 at 8:00 AM


Visibility: N/A

Pressure: 29.74 "Hg

Humidity: 44%

Dew point: 54 °F

Location of GanjaLocation

Historic Weather in Ganja — Graph

°F

Ganja temperature yesterday

Maximum temperature yesterday: 93 °F (at 5:30 PM)
Minimum temperature yesterday: 68 °F (at 5:30 AM)
Average temperature yesterday: 82 °F

Past Weeks' High & Low Weather Summary

 TemperatureHumidityPressure
High97 °F (Jul 18, 5:00 PM)83% (Jul 11, 5:00 AM)29.95 "Hg (Jul 11, 5:00 AM)
Low68 °F (Jul 11, 5:00 AM)11% (Jul 18, 5:00 PM)29.56 "Hg (Jul 19, 6:00 PM)
Average82 °F42%29.81 "Hg
* Reported Jul 10 7:00 AM — Jul 25 7:00 AM, Ganja, Weather by CustomWeather, © 2014

Note: Actual official high and low records may vary slightly from our data, if they occured in-between our weather recording intervals... More about our weather records

Advertising

Ganja weather history for previous 24 hours

 ConditionsComfort  
Time TempWeatherWind HumidityBarometerVisibility
7:00 AM
Jul 25
73 °FPassing clouds.5 mph50%29.74 "HgN/A
6:30 AM73 °FPassing clouds.7 mph47%29.74 "HgN/A
5:00 AM73 °FPassing clouds.5 mph47%29.74 "HgN/A
4:30 AM75 °FPassing clouds.5 mph47%29.74 "HgN/A
4:00 AM75 °FPassing clouds.5 mph44%29.74 "HgN/A
3:30 AM75 °FPassing clouds.5 mph41%29.74 "HgN/A
3:00 AM77 °FPassing clouds.6 mph36%29.74 "HgN/A
2:30 AM77 °FPassing clouds.5 mph32%29.74 "HgN/A
2:00 AM77 °FPassing clouds.3 mph36%29.74 "HgN/A
1:30 AM77 °FPassing clouds.3 mph39%29.74 "HgN/A
1:00 AM79 °FPassing clouds.2 mph34%29.74 "HgN/A
12:30 AM79 °FPassing clouds.7 mph37%29.74 "HgN/A
12:00 AM81 °FPassing clouds.7 mph34%29.74 "HgN/A
11:30 PM
Jul 24
81 °FPassing clouds.8 mph34%29.74 "HgN/A
11:00 PM82 °FPassing clouds.8 mph30%29.74 "HgN/A
10:30 PM84 °FPassing clouds.8 mph27%29.74 "HgN/A
10:00 PM86 °FPassing clouds.8 mph24%29.74 "HgN/A
9:30 PM86 °FPassing clouds.8 mph24%29.74 "HgN/A
9:00 PM88 °FPassing clouds.8 mph22%29.74 "HgN/A
8:30 PM91 °FPassing clouds.9 mph20%29.74 "HgN/A
8:00 PM93 °FPassing clouds.10 mph17%29.74 "HgN/A
7:30 PM93 °FPassing clouds.12 mph17%29.74 "HgN/A
7:00 PM93 °FPassing clouds.10 mph19%29.74 "HgN/A
6:30 PM93 °FPassing clouds.8 mph20%29.74 "HgN/A
6:00 PM93 °FPassing clouds.7 mph21%29.74 "HgN/A
5:30 PM93 °FPassing clouds.7 mph21%29.74 "HgN/A
5:00 PM91 °FPassing clouds.5 mph23%29.74 "HgN/A
4:30 PM91 °FPassing clouds.6 mph23%29.77 "HgN/A
4:00 PM91 °FPassing clouds.6 mph21%29.77 "HgN/A
3:30 PM91 °FPassing clouds.5 mph21%29.77 "HgN/A
3:00 PM90 °FPassing clouds.5 mph22%29.80 "HgN/A
2:30 PM90 °FPassing clouds.7 mph22%29.80 "HgN/A
2:00 PM88 °FPassing clouds.6 mph24%29.83 "HgN/A
1:30 PM88 °FPassing clouds.5 mph27%29.83 "HgN/A
1:00 PM86 °FPassing clouds.6 mph27%29.86 "HgN/A
12:30 PM84 °FPassing clouds.5 mph29%29.86 "HgN/A
12:00 PM82 °FPassing clouds.7 mph32%29.89 "HgN/A
11:30 AM82 °FPassing clouds.7 mph32%29.89 "HgN/A
11:00 AM81 °FPassing clouds.8 mph34%29.89 "HgN/A
10:30 AM79 °FPassing clouds.8 mph37%29.89 "HgN/A
10:00 AM77 °FPassing clouds.8 mph39%29.89 "HgN/A
9:30 AM75 °FPassing clouds.7 mph44%29.89 "HgN/A
9:00 AM73 °FPassing clouds.8 mph50%29.89 "HgN/A
8:30 AM72 °FPassing clouds.8 mph53%29.89 "HgN/A
8:00 AM70 °FPassing clouds.10 mph57%29.89 "HgN/A
Weather by CustomWeather, © 2014

See weather overviewHow to use our weather pages